Time,TemperatureF,DewpointF,PressureIn,WindDirection,WindDirectionDegrees,WindSpeedMPH,WindSpeedGustMPH,Humidity,HourlyPrecipIn,Conditions,Clouds,dailyrainin,SoftwareType,DateUTC
2013-06-09 00:00:00,72.1,68.7,30.05,North,5,0.0,0.0,89,0.00,,---,0.00,VWS V14.00,2013-06-09 04:00:00,
2013-06-09 00:01:00,72.1,68.7,30.05,North,5,0.0,0.0,89,0.00,,---,0.00,VWS V14.00,2013-06-09 04:01:00,
2013-06-09 00:06:00,72.1,68.7,30.05,North,5,0.0,0.0,89,0.00,,---,0.00,VWS V14.00,2013-06-09 04:06:00,
2013-06-09 00:11:00,72.1,68.7,30.05,North,5,0.0,0.0,89,0.00,,---,0.00,VWS V14.00,2013-06-09 04:11:00,
2013-06-09 00:16:00,72.0,68.6,30.05,North,5,0.0,0.0,89,0.00,,---,0.00,VWS V14.00,2013-06-09 04:16:00,
2013-06-09 00:21:00,72.0,68.6,30.06,North,5,0.0,0.0,89,0.00,,---,0.00,VWS V14.00,2013-06-09 04:21:00,
2013-06-09 00:26:00,71.9,68.5,30.06,North,5,0.0,0.0,89,0.00,,---,0.00,VWS V14.00,2013-06-09 04:26:00,
2013-06-09 00:31:00,71.8,68.4,30.06,North,5,0.0,0.0,89,0.00,,---,0.00,VWS V14.00,2013-06-09 04:31:00,
2013-06-09 00:36:00,71.7,68.3,30.06,North,5,0.0,0.0,89,0.00,,---,0.00,VWS V14.00,2013-06-09 04:36:00,
2013-06-09 00:41:00,71.7,68.6,30.05,North,5,0.0,0.0,90,0.00,,---,0.00,VWS V14.00,2013-06-09 04:41:00,
2013-06-09 00:46:00,71.7,68.6,30.05,North,5,0.0,0.0,90,0.00,,---,0.00,VWS V14.00,2013-06-09 04:46:00,
2013-06-09 00:52:00,71.6,68.5,30.05,North,5,0.0,0.0,90,0.00,,---,0.00,VWS V14.00,2013-06-09 04:52:00,
2013-06-09 00:57:00,71.6,68.5,30.05,North,5,0.0,0.0,90,0.00,,---,0.00,VWS V14.00,2013-06-09 04:57:00,
2013-06-09 01:02:00,71.5,68.4,30.05,North,5,0.0,0.0,90,0.00,,---,0.00,VWS V14.00,2013-06-09 05:02:00,
2013-06-09 01:07:00,71.4,68.3,30.05,North,5,0.0,0.0,90,0.00,,---,0.00,VWS V14.00,2013-06-09 05:07:00,
2013-06-09 01:12:00,71.3,68.2,30.05,North,5,0.0,0.0,90,0.00,,---,0.00,VWS V14.00,2013-06-09 05:12:00,
2013-06-09 01:17:00,71.3,68.5,30.05,North,5,0.0,0.0,91,0.00,,---,0.00,VWS V14.00,2013-06-09 05:17:00,
2013-06-09 01:22:00,71.2,68.4,30.05,North,5,0.0,0.0,91,0.00,,---,0.00,VWS V14.00,2013-06-09 05:22:00,
2013-06-09 01:27:00,71.2,68.4,30.05,North,5,0.0,0.0,91,0.00,,---,0.00,VWS V14.00,2013-06-09 05:27:00,
2013-06-09 01:32:00,71.2,68.4,30.05,North,5,0.0,0.0,91,0.00,,---,0.00,VWS V14.00,2013-06-09 05:32:00,
2013-06-09 01:37:00,71.1,68.3,30.05,North,5,0.0,0.0,91,0.00,,---,0.00,VWS V14.00,2013-06-09 05:37:00,
2013-06-09 01:42:00,71.1,68.3,30.05,North,5,0.0,0.0,91,0.00,,---,0.00,VWS V14.00,2013-06-09 05:42:00,
2013-06-09 01:47:00,71.0,68.2,30.05,North,5,0.0,0.0,91,0.00,,---,0.00,VWS V14.00,2013-06-09 05:47:00,
2013-06-09 01:52:00,70.8,67.7,30.05,North,5,0.0,0.0,90,0.00,,---,0.00,VWS V14.00,2013-06-09 05:52:00,
2013-06-09 01:57:00,70.7,67.9,30.05,North,5,0.0,0.0,91,0.00,,---,0.00,VWS V14.00,2013-06-09 05:57:00,
2013-06-09 02:02:00,70.7,67.9,30.05,North,5,0.0,0.0,91,0.00,,---,0.00,VWS V14.00,2013-06-09 06:02:00,
2013-06-09 02:07:00,70.6,68.2,30.04,North,5,0.0,0.0,92,0.00,,---,0.00,VWS V14.00,2013-06-09 06:07:00,
2013-06-09 02:12:00,70.6,68.2,30.04,North,5,0.0,0.0,92,0.00,,---,0.00,VWS V14.00,2013-06-09 06:12:00,
2013-06-09 02:17:00,70.6,68.2,30.04,North,5,0.0,0.0,92,0.00,,---,0.00,VWS V14.00,2013-06-09 06:17:00,
2013-06-09 02:22:00,70.6,68.2,30.04,North,5,0.0,0.0,92,0.00,,---,0.00,VWS V14.00,2013-06-09 06:22:00,
2013-06-09 02:27:00,70.5,68.1,30.04,North,5,0.0,0.0,92,0.00,,---,0.00,VWS V14.00,2013-06-09 06:27:00,
2013-06-09 02:32:00,70.5,68.1,30.05,North,5,0.0,1.0,92,0.00,,---,0.00,VWS V14.00,2013-06-09 06:32:00,
2013-06-09 02:37:00,70.4,68.0,30.05,North,5,0.0,1.0,92,0.00,,---,0.00,VWS V14.00,2013-06-09 06:37:00,
2013-06-09 02:42:00,70.4,68.0,30.04,North,5,0.0,1.0,92,0.00,,---,0.00,VWS V14.00,2013-06-09 06:42:00,
2013-06-09 02:47:00,70.4,68.0,30.04,North,5,0.0,1.0,92,0.00,,---,0.00,VWS V14.00,2013-06-09 06:47:00,
2013-06-09 02:52:00,70.4,68.0,30.04,North,5,0.0,1.0,92,0.00,,---,0.00,VWS V14.00,2013-06-09 06:52:00,
2013-06-09 02:57:00,70.5,68.1,30.04,North,5,0.0,1.0,92,0.00,,---,0.00,VWS V14.00,2013-06-09 06:57:00,
2013-06-09 03:02:00,70.6,68.2,30.04,North,5,0.0,1.0,92,0.00,,---,0.00,VWS V14.00,2013-06-09 07:02:00,
2013-06-09 03:07:00,70.6,68.2,30.03,North,5,0.0,1.0,92,0.00,,---,0.00,VWS V14.00,2013-06-09 07:07:00,
2013-06-09 03:12:00,70.5,68.4,30.04,North,5,0.0,1.0,93,0.00,,---,0.00,VWS V14.00,2013-06-09 07:12:00,
2013-06-09 03:17:00,70.4,68.3,30.04,North,5,0.0,1.0,93,0.00,,---,0.00,VWS V14.00,2013-06-09 07:17:00,
2013-06-09 03:22:00,70.3,68.2,30.03,North,5,0.0,1.0,93,0.00,,---,0.00,VWS V14.00,2013-06-09 07:22:00,
2013-06-09 03:27:00,70.2,68.1,30.04,North,5,0.0,0.0,93,0.00,,---,0.00,VWS V14.00,2013-06-09 07:27:00,
2013-06-09 03:32:00,70.1,68.0,30.03,North,5,0.0,0.0,93,0.00,,---,0.00,VWS V14.00,2013-06-09 07:32:00,
2013-06-09 03:37:00,70.0,67.9,30.04,North,5,0.0,0.0,93,0.00,,---,0.00,VWS V14.00,2013-06-09 07:37:00,
2013-06-09 03:42:00,69.9,67.8,30.04,North,5,0.0,0.0,93,0.00,,---,0.00,VWS V14.00,2013-06-09 07:42:00,
2013-06-09 03:47:00,69.8,67.7,30.04,North,5,0.0,0.0,93,0.00,,---,0.00,VWS V14.00,2013-06-09 07:47:00,
2013-06-09 03:52:00,69.7,67.9,30.04,North,5,0.0,0.0,94,0.00,,---,0.00,VWS V14.00,2013-06-09 07:52:00,
2013-06-09 03:57:00,69.7,67.9,30.04,North,5,0.0,0.0,94,0.00,,---,0.00,VWS V14.00,2013-06-09 07:57:00,
2013-06-09 04:02:00,69.7,67.9,30.03,North,5,0.0,0.0,94,0.00,,---,0.00,VWS V14.00,2013-06-09 08:02:00,
2013-06-09 04:07:00,69.6,67.8,30.04,North,5,0.0,0.0,94,0.00,,---,0.00,VWS V14.00,2013-06-09 08:07:00,
2013-06-09 04:12:00,69.6,67.8,30.04,North,5,0.0,0.0,94,0.00,,---,0.00,VWS V14.00,2013-06-09 08:12:00,
2013-06-09 04:17:00,69.5,67.7,30.04,North,5,0.0,0.0,94,0.00,,---,0.00,VWS V14.00,2013-06-09 08:17:00,
2013-06-09 04:22:00,69.5,67.7,30.04,North,5,0.0,0.0,94,0.00,,---,0.00,VWS V14.00,2013-06-09 08:22:00,
2013-06-09 04:27:00,69.4,67.6,30.04,North,5,0.0,0.0,94,0.00,,---,0.00,VWS V14.00,2013-06-09 08:27:00,
2013-06-09 04:32:00,69.4,67.6,30.04,North,5,0.0,0.0,94,0.00,,---,0.00,VWS V14.00,2013-06-09 08:32:00,
2013-06-09 04:38:00,69.3,67.5,30.05,North,5,0.0,0.0,94,0.00,,---,0.00,VWS V14.00,2013-06-09 08:38:00,
2013-06-09 04:43:00,69.2,67.4,30.04,North,5,0.0,0.0,94,0.00,,---,0.00,VWS V14.00,2013-06-09 08:43:00,
2013-06-09 04:48:00,69.2,67.4,30.05,North,5,0.0,0.0,94,0.00,,---,0.00,VWS V14.00,2013-06-09 08:48:00,
2013-06-09 04:53:00,69.2,67.4,30.05,North,5,0.0,0.0,94,0.00,,---,0.00,VWS V14.00,2013-06-09 08:53:00,
2013-06-09 04:58:00,69.2,67.7,30.05,North,5,0.0,0.0,95,0.00,,---,0.00,VWS V14.00,2013-06-09 08:58:00,
2013-06-09 05:03:00,69.3,67.8,30.05,North,5,0.0,0.0,95,0.00,,---,0.00,VWS V14.00,2013-06-09 09:03:00,
2013-06-09 05:08:00,69.3,67.8,30.05,North,5,0.0,0.0,95,0.00,,---,0.00,VWS V14.00,2013-06-09 09:08:00,
2013-06-09 05:13:00,69.4,67.9,30.06,North,5,0.0,0.0,95,0.00,,---,0.00,VWS V14.00,2013-06-09 09:13:00,
2013-06-09 05:18:00,69.4,67.9,30.06,North,5,0.0,0.0,95,0.00,,---,0.00,VWS V14.00,2013-06-09 09:18:00,
2013-06-09 05:23:00,69.3,67.8,30.06,North,5,0.0,0.0,95,0.00,,---,0.00,VWS V14.00,2013-06-09 09:23:00,
2013-06-09 05:28:00,69.3,67.8,30.06,North,5,0.0,0.0,95,0.00,,---,0.00,VWS V14.00,2013-06-09 09:28:00,
2013-06-09 05:33:00,69.2,67.7,30.06,North,5,0.0,0.0,95,0.00,,---,0.00,VWS V14.00,2013-06-09 09:33:00,
2013-06-09 05:38:00,69.1,67.6,30.06,North,5,0.0,0.0,95,0.00,,---,0.00,VWS V14.00,2013-06-09 09:38:00,
2013-06-09 05:43:00,69.1,67.6,30.06,North,5,0.0,0.0,95,0.00,,---,0.00,VWS V14.00,2013-06-09 09:43:00,
2013-06-09 05:48:00,69.1,67.6,30.06,North,5,0.0,0.0,95,0.00,,---,0.00,VWS V14.00,2013-06-09 09:48:00,
2013-06-09 05:53:00,69.1,67.6,30.06,North,5,0.0,0.0,95,0.00,,---,0.00,VWS V14.00,2013-06-09 09:53:00,
2013-06-09 05:58:00,69.0,67.5,30.06,North,5,0.0,0.0,95,0.00,,---,0.00,VWS V14.00,2013-06-09 09:58:00,
2013-06-09 06:03:00,68.9,67.4,30.06,North,5,0.0,0.0,95,0.00,,---,0.00,VWS V14.00,2013-06-09 10:03:00,
2013-06-09 06:08:00,68.9,67.4,30.07,North,5,0.0,0.0,95,0.00,,---,0.00,VWS V14.00,2013-06-09 10:08:00,
2013-06-09 06:13:00,68.9,67.4,30.07,North,5,0.0,0.0,95,0.00,,---,0.00,VWS V14.00,2013-06-09 10:13:00,
2013-06-09 06:18:00,68.9,67.4,30.07,North,5,0.0,0.0,95,0.00,,---,0.00,VWS V14.00,2013-06-09 10:18:00,
2013-06-09 06:23:00,68.8,67.3,30.07,North,5,0.0,0.0,95,0.00,,---,0.00,VWS V14.00,2013-06-09 10:23:00,
2013-06-09 06:28:00,68.8,67.3,30.07,North,5,0.0,0.0,95,0.00,,---,0.00,VWS V14.00,2013-06-09 10:28:00,
2013-06-09 06:33:00,68.8,67.3,30.07,North,5,0.0,0.0,95,0.00,,---,0.00,VWS V14.00,2013-06-09 10:33:00,
2013-06-09 06:38:00,68.8,67.3,30.07,North,5,0.0,1.0,95,0.00,,---,0.00,VWS V14.00,2013-06-09 10:38:00,
2013-06-09 06:43:00,68.9,67.7,30.07,North,5,0.0,1.0,96,0.00,,---,0.00,VWS V14.00,2013-06-09 10:43:00,
2013-06-09 06:48:00,69.0,67.8,30.07,North,5,0.0,1.0,96,0.00,,---,0.00,VWS V14.00,2013-06-09 10:48:00,
2013-06-09 06:53:00,69.1,67.9,30.07,North,5,0.0,1.0,96,0.00,,---,0.00,VWS V14.00,2013-06-09 10:53:00,
2013-06-09 06:58:00,69.3,68.1,30.07,North,5,1.0,1.0,96,0.00,,---,0.00,VWS V14.00,2013-06-09 10:58:00,
2013-06-09 07:03:00,69.4,68.2,30.07,North,5,0.0,1.0,96,0.00,,---,0.00,VWS V14.00,2013-06-09 11:03:00,
2013-06-09 07:08:00,69.5,68.3,30.07,North,5,0.0,1.0,96,0.00,,---,0.00,VWS V14.00,2013-06-09 11:08:00,
2013-06-09 07:13:00,69.7,68.5,30.07,North,5,0.0,1.0,96,0.00,,---,0.00,VWS V14.00,2013-06-09 11:13:00,
2013-06-09 07:18:00,69.8,68.6,30.07,North,5,0.0,1.0,96,0.00,,---,0.00,VWS V14.00,2013-06-09 11:18:00,
2013-06-09 07:23:00,70.1,68.9,30.07,North,5,0.0,1.0,96,0.00,,---,0.00,VWS V14.00,2013-06-09 11:23:00,
2013-06-09 07:28:00,70.3,69.1,30.07,North,5,0.0,1.0,96,0.00,,---,0.00,VWS V14.00,2013-06-09 11:28:00,
2013-06-09 07:33:00,70.5,69.3,30.07,North,5,0.0,1.0,96,0.00,,---,0.00,VWS V14.00,2013-06-09 11:33:00,
2013-06-09 07:38:00,70.8,69.6,30.08,North,5,0.0,1.0,96,0.00,,---,0.00,VWS V14.00,2013-06-09 11:38:00,
2013-06-09 07:43:00,71.0,69.8,30.08,North,5,0.0,1.0,96,0.00,,---,0.00,VWS V14.00,2013-06-09 11:43:00,
2013-06-09 07:48:00,71.2,70.0,30.08,North,5,0.0,1.0,96,0.00,,---,0.00,VWS V14.00,2013-06-09 11:48:00,
2013-06-09 07:53:00,71.5,70.3,30.08,North,5,0.0,1.0,96,0.00,,---,0.00,VWS V14.00,2013-06-09 11:53:00,
2013-06-09 07:58:00,71.7,70.5,30.08,North,9,0.0,2.0,96,0.00,,---,0.00,VWS V14.00,2013-06-09 11:58:00,
2013-06-09 08:03:00,71.9,70.7,30.08,North,9,0.0,2.0,96,0.00,,---,0.00,VWS V14.00,2013-06-09 12:03:00,
2013-06-09 08:08:00,72.1,70.9,30.08,NNE,19,1.0,3.0,96,0.00,,---,0.00,VWS V14.00,2013-06-09 12:08:00,
2013-06-09 08:13:00,72.3,71.1,30.09,NNE,21,0.0,3.0,96,0.00,,---,0.00,VWS V14.00,2013-06-09 12:13:00,
2013-06-09 08:18:00,72.5,71.0,30.08,NNE,21,0.0,3.0,95,0.00,,---,0.00,VWS V14.00,2013-06-09 12:18:00,
2013-06-09 08:23:00,72.8,71.3,30.09,NNE,22,0.0,3.0,95,0.00,,---,0.00,VWS V14.00,2013-06-09 12:23:00,
2013-06-09 08:28:00,73.0,71.5,30.09,NNE,22,0.0,1.0,95,0.00,,---,0.00,VWS V14.00,2013-06-09 12:28:00,
2013-06-09 08:33:00,73.2,71.7,30.09,NNE,26,0.0,3.0,95,0.00,,---,0.00,VWS V14.00,2013-06-09 12:33:00,
2013-06-09 08:38:00,73.4,71.6,30.09,ENE,78,2.0,4.0,94,0.00,,---,0.00,VWS V14.00,2013-06-09 12:38:00,
2013-06-09 08:43:00,73.5,71.7,30.09,East,79,0.0,4.0,94,0.00,,---,0.00,VWS V14.00,2013-06-09 12:43:00,
2013-06-09 08:48:00,73.7,71.6,30.09,East,82,0.0,4.0,93,0.00,,---,0.00,VWS V14.00,2013-06-09 12:48:00,
2013-06-09 08:53:00,73.9,71.8,30.09,East,82,0.0,4.0,93,0.00,,---,0.00,VWS V14.00,2013-06-09 12:53:00,
2013-06-09 08:58:00,74.0,71.8,30.09,East,82,1.0,2.0,93,0.00,,---,0.00,VWS V14.00,2013-06-09 12:58:00,
2013-06-09 09:03:00,74.3,72.2,30.09,East,82,0.0,2.0,93,0.00,,---,0.00,VWS V14.00,2013-06-09 13:03:00,
2013-06-09 09:08:00,74.5,72.3,30.09,East,84,2.0,2.0,93,0.00,,---,0.00,VWS V14.00,2013-06-09 13:08:00,
2013-06-09 09:13:00,74.6,72.1,30.09,East,88,2.0,3.0,92,0.00,,---,0.00,VWS V14.00,2013-06-09 13:13:00,
2013-06-09 09:18:00,74.7,72.2,30.09,East,101,4.0,5.0,92,0.00,,---,0.00,VWS V14.00,2013-06-09 13:18:00,
2013-06-09 09:23:00,74.8,72.0,30.09,ESE,109,2.0,5.0,91,0.00,,---,0.00,VWS V14.00,2013-06-09 13:23:00,
2013-06-09 09:28:00,75.0,72.5,30.08,ESE,111,1.0,2.0,92,0.00,,---,0.00,VWS V14.00,2013-06-09 13:28:00,
2013-06-09 09:33:00,75.3,72.8,30.08,ESE,111,0.0,2.0,92,0.00,,---,0.00,VWS V14.00,2013-06-09 13:33:00,
2013-06-09 09:38:00,75.6,72.5,30.09,ESE,113,0.0,5.0,90,0.00,,---,0.00,VWS V14.00,2013-06-09 13:38:00,
2013-06-09 09:43:00,75.8,72.7,30.09,ESE,114,1.0,5.0,90,0.00,,---,0.00,VWS V14.00,2013-06-09 13:43:00,
2013-06-09 09:48:00,76.2,72.7,30.09,SE,124,1.0,5.0,89,0.00,,---,0.00,VWS V14.00,2013-06-09 13:48:00,
2013-06-09 09:53:00,76.5,73.0,30.09,SE,126,0.0,5.0,89,0.00,,---,0.00,VWS V14.00,2013-06-09 13:53:00,
2013-06-09 09:58:00,76.6,72.8,30.08,SE,134,0.0,4.0,88,0.00,,---,0.00,VWS V14.00,2013-06-09 13:58:00,
2013-06-09 10:03:00,76.7,72.9,30.08,SE,144,1.0,4.0,88,0.00,,---,0.00,VWS V14.00,2013-06-09 14:03:00,
2013-06-09 10:08:00,76.6,72.8,30.08,SSE,147,2.0,7.0,88,0.00,,---,0.00,VWS V14.00,2013-06-09 14:08:00,
2013-06-09 10:13:00,76.4,72.6,30.08,SE,144,1.0,7.0,88,0.00,,---,0.00,VWS V14.00,2013-06-09 14:13:00,
2013-06-09 10:18:00,76.2,72.7,30.08,SE,143,0.0,7.0,89,0.00,,---,0.00,VWS V14.00,2013-06-09 14:18:00,
2013-06-09 10:23:00,76.0,72.5,30.08,SE,144,2.0,7.0,89,0.00,,---,0.00,VWS V14.00,2013-06-09 14:23:00,
2013-06-09 10:28:00,76.0,72.9,30.08,SE,143,5.0,5.0,90,0.00,,---,0.00,VWS V14.00,2013-06-09 14:28:00,
2013-06-09 10:33:00,76.1,73.3,30.08,SSE,148,2.0,5.0,91,0.00,,---,0.00,VWS V14.00,2013-06-09 14:33:00,
2013-06-09 10:38:00,76.2,73.1,30.08,SE,138,4.0,7.0,90,0.00,,---,0.00,VWS V14.00,2013-06-09 14:38:00,
2013-06-09 10:43:00,76.3,73.2,30.08,ENE,70,2.0,7.0,90,0.00,,---,0.00,VWS V14.00,2013-06-09 14:43:00,
2013-06-09 10:48:00,76.4,73.2,30.08,ESE,115,2.0,7.0,90,0.00,,---,0.00,VWS V14.00,2013-06-09 14:48:00,
2013-06-09 10:53:00,76.6,73.4,30.08,SE,126,2.0,7.0,90,0.00,,---,0.00,VWS V14.00,2013-06-09 14:53:00,
2013-06-09 10:58:00,76.6,73.4,30.08,SE,126,2.0,4.0,90,0.00,,---,0.00,VWS V14.00,2013-06-09 14:58:00,
2013-06-09 11:03:00,76.6,73.1,30.08,SE,126,1.0,4.0,89,0.00,,---,0.00,VWS V14.00,2013-06-09 15:03:00,
2013-06-09 11:07:00,76.7,73.2,30.08,SE,126,1.0,5.0,89,0.00,,---,0.00,VWS V14.00,2013-06-09 15:07:00,
2013-06-09 11:13:00,76.8,73.3,30.08,SE,126,1.0,5.0,89,0.00,,---,0.00,VWS V14.00,2013-06-09 15:13:00,
2013-06-09 11:18:00,77.0,73.5,30.08,SE,130,2.0,5.0,89,0.00,,---,0.00,VWS V14.00,2013-06-09 15:18:00,
2013-06-09 11:23:00,77.1,73.9,30.08,SE,130,4.0,5.0,90,0.00,,---,0.00,VWS V14.00,2013-06-09 15:23:00,
2013-06-09 11:28:00,77.4,73.9,30.08,SE,128,4.0,6.0,89,0.00,,---,0.00,VWS V14.00,2013-06-09 15:28:00,
2013-06-09 11:33:00,77.7,73.9,30.08,SE,133,4.0,7.0,88,0.00,,---,0.00,VWS V14.00,2013-06-09 15:33:00,
2013-06-09 11:38:00,78.4,74.2,30.08,South,173,2.0,7.0,87,0.00,,---,0.00,VWS V14.00,2013-06-09 15:38:00,
2013-06-09 11:43:00,78.9,73.3,30.08,SE,132,0.0,7.0,83,0.00,,---,0.00,VWS V14.00,2013-06-09 15:43:00,
2013-06-09 11:47:00,79.5,73.5,30.08,SSE,158,4.0,7.0,82,0.00,,---,0.00,VWS V14.00,2013-06-09 15:47:00,
2013-06-09 11:52:00,79.9,73.6,30.08,SE,140,2.0,7.0,81,0.00,,---,0.00,VWS V14.00,2013-06-09 15:52:00,
2013-06-09 11:57:00,80.2,73.1,30.08,SE,139,5.0,5.0,79,0.00,,---,0.00,VWS V14.00,2013-06-09 15:57:00,
2013-06-09 12:02:00,80.4,73.7,30.08,SE,135,1.0,6.0,80,0.00,,---,0.00,VWS V14.00,2013-06-09 16:02:00,
2013-06-09 12:07:00,80.8,74.4,30.07,SE,134,2.0,6.0,81,0.00,,---,0.00,VWS V14.00,2013-06-09 16:07:00,
2013-06-09 12:12:00,81.0,74.2,30.08,SSE,152,1.0,6.0,80,0.00,,---,0.00,VWS V14.00,2013-06-09 16:12:00,
2013-06-09 12:17:00,81.0,73.9,30.08,SSE,148,1.0,6.0,79,0.00,,---,0.00,VWS V14.00,2013-06-09 16:17:00,
2013-06-09 12:22:00,81.0,74.2,30.07,SSE,148,2.0,6.0,80,0.00,,---,0.00,VWS V14.00,2013-06-09 16:22:00,
2013-06-09 12:27:00,81.2,74.1,30.07,SE,129,4.0,7.0,79,0.00,,---,0.00,VWS V14.00,2013-06-09 16:27:00,
2013-06-09 12:32:00,81.6,74.1,30.07,SSW,206,2.0,7.0,78,0.00,,---,0.00,VWS V14.00,2013-06-09 16:32:00,
2013-06-09 12:37:00,81.7,73.4,30.07,SE,134,2.0,7.0,76,0.00,,---,0.00,VWS V14.00,2013-06-09 16:37:00,
2013-06-09 12:42:00,81.6,73.7,30.07,SSE,151,1.0,7.0,77,0.00,,---,0.00,VWS V14.00,2013-06-09 16:42:00,
2013-06-09 12:48:00,81.8,74.3,30.06,SSE,148,2.0,7.0,78,0.00,,---,0.00,VWS V14.00,2013-06-09 16:48:00,
2013-06-09 12:53:00,82.2,73.9,30.06,SE,128,2.0,9.0,76,0.00,,---,0.00,VWS V14.00,2013-06-09 16:53:00,
2013-06-09 12:58:00,82.4,72.5,30.05,SE,140,2.0,5.0,72,0.00,,---,0.00,VWS V14.00,2013-06-09 16:58:00,
2013-06-09 13:03:00,82.6,73.9,30.05,SW,217,0.0,6.0,75,0.00,,---,0.00,VWS V14.00,2013-06-09 17:03:00,
2013-06-09 13:08:00,83.0,71.4,30.05,South,175,1.0,7.0,68,0.00,,---,0.00,VWS V14.00,2013-06-09 17:08:00,
2013-06-09 13:13:00,83.4,71.3,30.05,SE,135,4.0,7.0,67,0.00,,---,0.00,VWS V14.00,2013-06-09 17:13:00,
2013-06-09 13:18:00,83.6,72.4,30.05,SSE,155,1.0,7.0,69,0.00,,---,0.00,VWS V14.00,2013-06-09 17:18:00,
2013-06-09 13:23:00,83.8,71.7,30.05,SW,215,2.0,7.0,67,0.00,,---,0.00,VWS V14.00,2013-06-09 17:23:00,
2013-06-09 13:28:00,84.2,72.9,30.05,SE,145,4.0,6.0,69,0.00,,---,0.00,VWS V14.00,2013-06-09 17:28:00,
2013-06-09 13:33:00,84.5,73.7,30.04,South,181,4.0,7.0,70,0.00,,---,0.00,VWS V14.00,2013-06-09 17:33:00,
2013-06-09 13:38:00,84.5,71.9,30.03,SE,133,6.0,8.0,66,0.00,,---,0.00,VWS V14.00,2013-06-09 17:38:00,
2013-06-09 13:43:00,84.1,72.4,30.03,SE,124,2.0,9.0,68,0.00,,---,0.00,VWS V14.00,2013-06-09 17:43:00,
2013-06-09 13:48:00,83.9,72.2,30.03,SE,136,5.0,9.0,68,0.00,,---,0.00,VWS V14.00,2013-06-09 17:48:00,
2013-06-09 13:53:00,83.8,72.1,30.03,SE,134,1.0,9.0,68,0.00,,---,0.00,VWS V14.00,2013-06-09 17:53:00,
2013-06-09 13:58:00,83.7,72.5,30.03,SE,126,5.0,7.0,69,0.00,,---,0.00,VWS V14.00,2013-06-09 17:58:00,
2013-06-09 14:04:00,83.4,72.6,30.02,SE,126,1.0,1.0,70,0.00,,---,0.00,VWS V14.00,2013-06-09 18:04:00,
2013-06-09 14:09:00,83.3,72.9,30.02,ESE,123,0.0,8.0,71,0.00,,---,0.00,VWS V14.00,2013-06-09 18:09:00,
2013-06-09 14:14:00,83.0,72.6,30.01,SE,128,4.0,8.0,71,0.00,,---,0.00,VWS V14.00,2013-06-09 18:14:00,
2013-06-09 14:19:00,82.8,73.3,30.01,SE,134,1.0,8.0,73,0.00,,---,0.00,VWS V14.00,2013-06-09 18:19:00,
2013-06-09 14:24:00,82.3,73.6,30.02,SE,130,2.0,8.0,75,0.00,,---,0.00,VWS V14.00,2013-06-09 18:24:00,
2013-06-09 14:29:00,81.8,74.7,30.03,SE,142,1.0,5.0,79,0.01,,---,0.01,VWS V14.00,2013-06-09 18:29:00,
2013-06-09 14:34:00,81.2,74.8,30.02,SE,142,1.0,5.0,81,0.11,,---,0.11,VWS V14.00,2013-06-09 18:34:00,
2013-06-09 14:39:00,80.3,74.7,30.03,West,262,3.0,5.0,83,0.16,,---,0.16,VWS V14.00,2013-06-09 18:39:00,
2013-06-09 14:44:00,78.8,72.8,30.04,NNW,342,4.0,8.0,82,0.25,,---,0.25,VWS V14.00,2013-06-09 18:44:00,
2013-06-09 14:49:00,76.6,71.1,30.04,WSW,257,2.0,8.0,83,0.35,,---,0.35,VWS V14.00,2013-06-09 18:49:00,
2013-06-09 14:54:00,75.1,70.6,30.03,WNW,290,0.0,8.0,86,0.39,,---,0.39,VWS V14.00,2013-06-09 18:54:00,
2013-06-09 14:59:00,74.1,70.7,30.03,North,355,0.0,5.0,89,0.40,,---,0.40,VWS V14.00,2013-06-09 18:59:00,
2013-06-09 15:04:00,73.6,70.5,30.04,West,273,0.0,5.0,90,0.41,,---,0.41,VWS V14.00,2013-06-09 19:04:00,
2013-06-09 15:09:00,73.4,70.9,30.06,SE,139,0.0,7.0,92,0.42,,---,0.42,VWS V14.00,2013-06-09 19:09:00,
2013-06-09 15:14:00,73.1,70.3,30.06,SE,143,4.0,7.0,91,0.42,,---,0.42,VWS V14.00,2013-06-09 19:14:00,
2013-06-09 15:19:00,72.9,70.4,30.04,ESE,103,4.0,7.0,92,0.42,,---,0.42,VWS V14.00,2013-06-09 19:19:00,
2013-06-09 15:24:00,72.9,70.8,30.03,ENE,76,0.0,7.0,93,0.42,,---,0.42,VWS V14.00,2013-06-09 19:24:00,
2013-06-09 15:29:00,73.1,71.0,30.03,ENE,76,0.0,1.0,93,0.42,,---,0.42,VWS V14.00,2013-06-09 19:29:00,
2013-06-09 15:34:00,73.3,71.2,30.04,SE,128,2.0,6.0,93,0.42,,---,0.42,VWS V14.00,2013-06-09 19:34:00,
2013-06-09 15:39:00,73.7,71.9,30.04,East,96,5.0,7.0,94,0.42,,---,0.42,VWS V14.00,2013-06-09 19:39:00,
2013-06-09 15:44:00,74.1,71.9,30.04,East,91,5.0,7.0,93,0.42,,---,0.42,VWS V14.00,2013-06-09 19:44:00,
2013-06-09 15:49:00,74.4,71.9,30.05,SE,126,5.0,7.0,92,0.42,,---,0.42,VWS V14.00,2013-06-09 19:49:00,
2013-06-09 15:54:00,74.6,71.8,30.04,ESE,113,0.0,7.0,91,0.42,,---,0.42,VWS V14.00,2013-06-09 19:54:00,
2013-06-09 15:59:00,74.7,71.6,30.05,ESE,112,4.0,5.0,90,0.03,,---,0.42,VWS V14.00,2013-06-09 19:59:00,
2013-06-09 16:04:00,74.7,71.2,30.05,ESE,113,2.0,5.0,89,0.03,,---,0.42,VWS V14.00,2013-06-09 20:04:00,
2013-06-09 16:09:00,74.9,71.8,30.05,ESE,113,4.0,5.0,90,0.03,,---,0.42,VWS V14.00,2013-06-09 20:09:00,
2013-06-09 16:14:00,75.0,71.5,30.05,ESE,111,4.0,5.0,89,0.03,,---,0.42,VWS V14.00,2013-06-09 20:14:00,
2013-06-09 16:19:00,74.9,71.1,30.05,ESE,119,5.0,7.0,88,0.03,,---,0.42,VWS V14.00,2013-06-09 20:19:00,
2013-06-09 16:24:00,74.8,71.3,30.05,ESE,119,2.0,7.0,89,0.03,,---,0.42,VWS V14.00,2013-06-09 20:24:00,
2013-06-09 16:29:00,74.6,71.2,30.05,SE,132,1.0,7.0,89,0.00,,---,0.42,VWS V14.00,2013-06-09 20:29:00,
2013-06-09 16:34:00,74.5,71.1,30.05,SE,135,2.0,7.0,89,0.00,,---,0.42,VWS V14.00,2013-06-09 20:34:00,
2013-06-09 16:39:00,74.5,71.4,30.05,ESE,118,4.0,11.0,90,0.00,,---,0.42,VWS V14.00,2013-06-09 20:39:00,
2013-06-09 16:44:00,74.4,70.9,30.04,SE,144,4.0,11.0,89,0.00,,---,0.42,VWS V14.00,2013-06-09 20:44:00,
2013-06-09 16:49:00,74.4,70.6,30.04,SE,138,7.0,15.0,88,0.00,,---,0.42,VWS V14.00,2013-06-09 20:49:00,
2013-06-09 16:54:00,74.4,70.9,30.04,SSE,150,5.0,15.0,89,0.00,,---,0.42,VWS V14.00,2013-06-09 20:54:00,
2013-06-09 16:59:00,74.5,71.1,30.04,SE,137,5.0,8.0,89,0.00,,---,0.42,VWS V14.00,2013-06-09 20:59:00,
2013-06-09 17:04:00,74.6,71.2,30.04,SE,134,4.0,9.0,89,0.00,,---,0.42,VWS V14.00,2013-06-09 21:04:00,
2013-06-09 17:09:00,74.8,71.0,30.04,SSE,151,8.0,16.0,88,0.00,,---,0.42,VWS V14.00,2013-06-09 21:09:00,
2013-06-09 17:14:00,74.8,71.0,30.04,ESE,119,4.0,16.0,88,0.00,,---,0.42,VWS V14.00,2013-06-09 21:14:00,
2013-06-09 17:19:00,74.7,70.9,30.04,SSE,150,6.0,16.0,88,0.00,,---,0.42,VWS V14.00,2013-06-09 21:19:00,
2013-06-09 17:24:00,74.5,70.7,30.04,SE,136,2.0,16.0,88,0.00,,---,0.42,VWS V14.00,2013-06-09 21:24:00,
2013-06-09 17:29:00,74.4,70.6,30.04,SE,146,4.0,12.0,88,0.00,,---,0.42,VWS V14.00,2013-06-09 21:29:00,
2013-06-09 17:34:00,74.2,70.8,30.04,SE,142,2.0,12.0,89,0.00,,---,0.42,VWS V14.00,2013-06-09 21:34:00,
2013-06-09 17:39:00,73.9,70.5,30.03,SE,139,4.0,12.0,89,0.03,,---,0.45,VWS V14.00,2013-06-09 21:39:00,
2013-06-09 17:44:00,73.6,70.5,30.03,SE,138,0.0,12.0,90,0.05,,---,0.47,VWS V14.00,2013-06-09 21:44:00,
2013-06-09 17:49:00,73.4,70.6,30.03,SE,145,2.0,12.0,91,0.06,,---,0.48,VWS V14.00,2013-06-09 21:49:00,
2013-06-09 17:54:00,73.0,70.2,30.02,SE,145,0.0,12.0,91,0.07,,---,0.49,VWS V14.00,2013-06-09 21:54:00,
2013-06-09 17:59:00,72.8,70.0,30.01,SE,145,0.0,4.0,91,0.08,,---,0.50,VWS V14.00,2013-06-09 21:59:00,
2013-06-09 18:04:00,72.5,70.1,30.01,SE,131,4.0,6.0,92,0.08,,---,0.50,VWS V14.00,2013-06-09 22:04:00,
2013-06-09 18:09:00,72.3,69.8,30.01,SE,133,1.0,6.0,92,0.09,,---,0.51,VWS V14.00,2013-06-09 22:09:00,
2013-06-09 18:14:00,72.2,70.1,30.02,SE,144,1.0,6.0,93,0.09,,---,0.51,VWS V14.00,2013-06-09 22:14:00,
2013-06-09 18:19:00,72.0,69.9,30.02,SE,144,2.0,6.0,93,0.09,,---,0.51,VWS V14.00,2013-06-09 22:19:00,
2013-06-09 18:24:00,71.9,69.8,30.02,SE,136,4.0,8.0,93,0.09,,---,0.51,VWS V14.00,2013-06-09 22:24:00,
2013-06-09 18:29:00,71.8,69.7,30.02,SSE,149,1.0,5.0,93,0.09,,---,0.51,VWS V14.00,2013-06-09 22:29:00,
2013-06-09 18:34:00,71.6,69.5,30.02,South,183,0.0,5.0,93,0.09,,---,0.51,VWS V14.00,2013-06-09 22:34:00,
2013-06-09 18:39:00,71.6,69.8,30.02,South,183,0.0,5.0,94,0.10,,---,0.52,VWS V14.00,2013-06-09 22:39:00,
2013-06-09 18:44:00,71.5,69.7,30.03,South,183,0.0,5.0,94,0.11,,---,0.53,VWS V14.00,2013-06-09 22:44:00,
2013-06-09 18:49:00,71.4,69.6,30.03,South,183,0.0,5.0,94,0.11,,---,0.53,VWS V14.00,2013-06-09 22:49:00,
2013-06-09 18:54:00,71.4,69.6,30.03,South,183,0.0,5.0,94,0.12,,---,0.54,VWS V14.00,2013-06-09 22:54:00,
2013-06-09 18:59:00,71.3,69.5,30.03,South,183,1.0,1.0,94,0.07,,---,0.56,VWS V14.00,2013-06-09 22:59:00,
2013-06-09 19:04:00,71.2,69.4,30.03,South,183,0.0,1.0,94,0.08,,---,0.57,VWS V14.00,2013-06-09 23:04:00,
2013-06-09 19:09:00,71.2,69.4,30.03,South,183,0.0,1.0,94,0.09,,---,0.58,VWS V14.00,2013-06-09 23:09:00,
2013-06-09 19:14:00,71.1,69.3,30.03,South,183,0.0,1.0,94,0.10,,---,0.59,VWS V14.00,2013-06-09 23:14:00,
2013-06-09 19:19:00,71.1,69.3,30.04,South,183,0.0,1.0,94,0.11,,---,0.60,VWS V14.00,2013-06-09 23:19:00,
2013-06-09 19:24:00,71.0,69.2,30.05,South,183,0.0,1.0,94,0.13,,---,0.62,VWS V14.00,2013-06-09 23:24:00,
2013-06-09 19:29:00,70.9,69.1,30.05,South,183,0.0,1.0,94,0.20,,---,0.71,VWS V14.00,2013-06-09 23:29:00,
2013-06-09 19:34:00,70.8,69.0,30.05,South,189,0.0,2.0,94,0.28,,---,0.79,VWS V14.00,2013-06-09 23:34:00,
2013-06-09 19:39:00,70.7,68.9,30.06,South,189,0.0,2.0,94,0.31,,---,0.82,VWS V14.00,2013-06-09 23:39:00,
2013-06-09 19:44:00,70.7,69.2,30.05,South,189,0.0,2.0,95,0.39,,---,0.90,VWS V14.00,2013-06-09 23:44:00,
2013-06-09 19:49:00,70.7,69.2,30.06,South,189,0.0,2.0,95,0.51,,---,1.02,VWS V14.00,2013-06-09 23:49:00,
2013-06-09 19:54:00,70.6,68.8,30.06,South,189,1.0,2.0,94,0.65,,---,1.16,VWS V14.00,2013-06-09 23:54:00,
2013-06-09 19:59:00,70.3,68.5,30.05,South,190,1.0,1.0,94,0.76,,---,1.31,VWS V14.00,2013-06-09 23:59:00,
2013-06-09 20:04:00,70.2,68.7,30.05,South,189,0.0,3.0,95,0.84,,---,1.39,VWS V14.00,2013-06-10 00:04:00,
2013-06-09 20:09:00,70.1,68.6,30.05,South,189,0.0,3.0,95,0.84,,---,1.39,VWS V14.00,2013-06-10 00:09:00,
2013-06-09 20:14:00,70.1,68.6,30.04,South,189,0.0,3.0,95,0.84,,---,1.39,VWS V14.00,2013-06-10 00:14:00,
2013-06-09 20:19:00,70.1,68.6,30.04,South,189,2.0,3.0,95,0.84,,---,1.39,VWS V14.00,2013-06-10 00:19:00,
2013-06-09 20:24:00,70.0,68.5,30.04,South,189,0.0,3.0,95,0.84,,---,1.39,VWS V14.00,2013-06-10 00:24:00,
2013-06-09 20:29:00,70.0,68.5,30.05,SSE,154,0.0,1.0,95,0.75,,---,1.39,VWS V14.00,2013-06-10 00:29:00,
2013-06-09 20:34:00,70.1,68.6,30.05,SSE,154,0.0,1.0,95,0.75,,---,1.39,VWS V14.00,2013-06-10 00:34:00,
2013-06-09 20:39:00,70.1,68.6,30.04,SSE,154,1.0,2.0,95,0.75,,---,1.39,VWS V14.00,2013-06-10 00:39:00,
2013-06-09 20:44:00,70.1,68.6,30.05,SSE,154,0.0,2.0,95,0.75,,---,1.39,VWS V14.00,2013-06-10 00:44:00,
2013-06-09 20:49:00,70.1,68.6,30.05,South,173,0.0,2.0,95,0.75,,---,1.39,VWS V14.00,2013-06-10 00:49:00,
2013-06-09 20:54:00,70.1,68.6,30.06,South,173,0.0,2.0,95,0.75,,---,1.39,VWS V14.00,2013-06-10 00:54:00,
2013-06-09 20:59:00,70.1,68.6,30.06,SE,132,5.0,7.0,95,0.23,,---,1.49,VWS V14.00,2013-06-10 00:59:00,
2013-06-09 21:04:00,70.1,68.6,30.06,SE,134,2.0,7.0,95,0.30,,---,1.56,VWS V14.00,2013-06-10 01:04:00,
2013-06-09 21:09:00,70.0,68.5,30.05,SE,135,2.0,7.0,95,0.31,,---,1.57,VWS V14.00,2013-06-10 01:09:00,
2013-06-09 21:14:00,70.0,68.5,30.04,SE,135,1.0,7.0,95,0.31,,---,1.57,VWS V14.00,2013-06-10 01:14:00,
2013-06-09 21:19:00,70.1,68.6,30.04,SE,135,0.0,7.0,95,0.31,,---,1.57,VWS V14.00,2013-06-10 01:19:00,
2013-06-09 21:24:00,70.1,68.6,30.04,SE,135,1.0,7.0,95,0.31,,---,1.57,VWS V14.00,2013-06-10 01:24:00,
2013-06-09 21:29:00,70.1,68.9,30.03,SE,135,1.0,4.0,96,0.18,,---,1.57,VWS V14.00,2013-06-10 01:29:00,
2013-06-09 21:34:00,70.1,68.9,30.03,SE,135,0.0,4.0,96,0.18,,---,1.57,VWS V14.00,2013-06-10 01:34:00,
2013-06-09 21:39:00,70.2,69.0,30.03,SE,135,0.0,4.0,96,0.18,,---,1.57,VWS V14.00,2013-06-10 01:39:00,
2013-06-09 21:44:00,70.2,69.0,30.04,SE,135,1.0,5.0,96,0.18,,---,1.57,VWS V14.00,2013-06-10 01:44:00,
2013-06-09 21:48:00,70.3,69.1,30.03,SE,135,1.0,5.0,96,0.18,,---,1.57,VWS V14.00,2013-06-10 01:48:00,
2013-06-09 21:54:00,70.3,69.1,30.03,SE,135,1.0,5.0,96,0.18,,---,1.57,VWS V14.00,2013-06-10 01:54:00,
2013-06-09 21:58:00,70.3,69.1,30.03,SE,135,0.0,2.0,96,0.18,,---,1.57,VWS V14.00,2013-06-10 01:58:00,
2013-06-09 22:03:00,70.3,69.1,30.04,SE,135,2.0,4.0,96,0.18,,---,1.57,VWS V14.00,2013-06-10 02:03:00,
2013-06-09 22:08:00,70.4,69.2,30.04,SE,135,1.0,5.0,96,0.18,,---,1.57,VWS V14.00,2013-06-10 02:08:00,
2013-06-09 22:13:00,70.4,69.2,30.04,SE,135,2.0,5.0,96,0.18,,---,1.57,VWS V14.00,2013-06-10 02:13:00,
2013-06-09 22:18:00,70.4,69.2,30.04,SE,137,1.0,5.0,96,0.18,,---,1.57,VWS V14.00,2013-06-10 02:18:00,
2013-06-09 22:23:00,70.4,69.2,30.05,SE,141,0.0,5.0,96,0.18,,---,1.57,VWS V14.00,2013-06-10 02:23:00,
2013-06-09 22:28:00,70.4,69.2,30.05,SE,144,2.0,4.0,96,0.00,,---,1.57,VWS V14.00,2013-06-10 02:28:00,
2013-06-09 22:33:00,70.5,69.3,30.05,SW,214,2.0,5.0,96,0.00,,---,1.57,VWS V14.00,2013-06-10 02:33:00,
2013-06-09 22:38:00,70.6,69.4,30.05,SSW,196,2.0,5.0,96,0.00,,---,1.57,VWS V14.00,2013-06-10 02:38:00,
2013-06-09 22:43:00,70.7,69.5,30.05,SE,145,2.0,6.0,96,0.01,,---,1.58,VWS V14.00,2013-06-10 02:43:00,
2013-06-09 22:48:00,70.8,69.6,30.05,SE,139,4.0,7.0,96,0.02,,---,1.59,VWS V14.00,2013-06-10 02:48:00,
2013-06-09 22:53:00,70.8,69.6,30.05,SSE,156,4.0,7.0,96,0.03,,---,1.60,VWS V14.00,2013-06-10 02:53:00,
2013-06-09 22:58:00,70.9,69.7,30.05,SSE,156,0.0,4.0,96,0.03,,---,1.60,VWS V14.00,2013-06-10 02:58:00,
2013-06-09 23:03:00,71.0,69.8,30.05,SSE,156,0.0,4.0,96,0.03,,---,1.60,VWS V14.00,2013-06-10 03:03:00,
2013-06-09 23:08:00,71.0,69.8,30.05,SSE,158,0.0,4.0,96,0.03,,---,1.60,VWS V14.00,2013-06-10 03:08:00,
2013-06-09 23:13:00,71.1,69.9,30.05,SSE,162,2.0,5.0,96,0.04,,---,1.61,VWS V14.00,2013-06-10 03:13:00,
2013-06-09 23:18:00,71.1,69.9,30.04,SSE,164,2.0,5.0,96,0.04,,---,1.61,VWS V14.00,2013-06-10 03:18:00,
2013-06-09 23:23:00,71.2,70.0,30.05,SSE,164,0.0,5.0,96,0.04,,---,1.61,VWS V14.00,2013-06-10 03:23:00,
2013-06-09 23:28:00,71.2,70.0,30.05,South,172,4.0,7.0,96,0.04,,---,1.61,VWS V14.00,2013-06-10 03:28:00,
2013-06-09 23:33:00,71.2,70.0,30.04,SSW,194,0.0,7.0,96,0.04,,---,1.61,VWS V14.00,2013-06-10 03:33:00,
2013-06-09 23:38:00,71.2,70.0,30.04,SSW,194,1.0,7.0,96,0.04,,---,1.61,VWS V14.00,2013-06-10 03:38:00,
2013-06-09 23:43:00,71.2,70.0,30.04,South,190,1.0,7.0,96,0.04,,---,1.61,VWS V14.00,2013-06-10 03:43:00,
2013-06-09 23:48:00,71.2,70.0,30.04,SSW,203,0.0,7.0,96,0.04,,---,1.61,VWS V14.00,2013-06-10 03:48:00,
2013-06-09 23:56:00,71.2,70.0,30.04,South,173,2.0,2.0,96,0.04,,---,1.61,VWS V14.00,2013-06-10 03:56:00,